Home > Weather > Alsdorf > Past weeks

Flag for Germany Past Weather in Alsdorf, North Rhine-Westphalia, Germany — Yesterday and Last 2 Weeks

Now
86 °F

Sunny.


Feels Like: 89 °F
Forecast: 66 / 90 °F
Wind: 3 mph from North

Location: Geilenkirchen Airport

Current Time: Aug 26, 2016 at 8:43:39 PM

Latest Report: Aug 26, 2016 at 6:50 PM


Visibility: 10 mi

Pressure: 30.04 "Hg

Humidity: 55%

Dew Point: 68 °F

Location of AlsdorfLocation

Past Weather in Alsdorf — Graph

°F

Alsdorf Temperature Yesterday

Maximum temperature yesterday: 95 °F (at 4:50 PM)
Minimum temperature yesterday: 61 °F (at 6:50 AM)
Average temperature yesterday: 79 °F

High & Low Weather Summary for the Past Weeks

 TemperatureHumidityPressure
High95 °F (Aug 25, 4:50 PM)100% (Aug 11, 10:50 PM)30.36 "Hg (Aug 11, 10:50 PM)
Low48 °F (Aug 16, 6:50 AM)30% (Aug 25, 4:50 PM)29.80 "Hg (Aug 18, 5:50 AM)
Average69 °F71%30.07 "Hg
* Reported Aug 11 6:50 PM — Aug 26 6:50 PM, Alsdorf, Weather by CustomWeather, © 2016

Note: Actual official high and low records may vary slightly from our data, if they occured in-between our weather recording intervals... More about our weather records

Advertising

Alsdorf Weather History for the Previous 24 Hours

Scroll right to see more
 ConditionsComfort  
Time TempWeatherWind HumidityBarometerVisibility
6:50 PM
Fri, Aug 26
86 °FSunny.3 mph55%30.04 "Hg10 mi
5:50 PM86 °FSunny.5 mph55%30.04 "Hg10 mi
4:50 PM86 °FSunny.8 mph59%30.04 "Hg10 mi
3:50 PM86 °FSunny.12 mph59%30.04 "Hg10 mi
2:50 PM88 °FSunny.8 mph55%30.04 "Hg10 mi
1:50 PM86 °FSunny.7 mph55%30.04 "Hg10 mi
12:50 PM86 °FSunny.6 mph55%30.04 "Hg10 mi
11:50 AM84 °FSunny.7 mph55%30.04 "Hg10 mi
10:50 AM82 °FSunny.7 mph58%30.01 "Hg10 mi
9:50 AM81 °FSunny.7 mph58%30.01 "Hg10 mi
8:50 AM75 °FSunny.1 mph69%30.01 "Hg10 mi
7:50 AM72 °FSunny.1 mph73%29.98 "Hg10 mi
6:50 AM66 °FClear.1 mph83%29.98 "Hg10 mi
5:50 AM66 °FClear.1 mph83%29.95 "Hg10 mi
4:50 AM68 °FClear.2 mph73%29.95 "Hg10 mi
3:50 AM73 °FClear.No wind65%29.95 "Hg10 mi
2:50 AM75 °FClear.1 mph57%29.95 "Hg10 mi
1:50 AM70 °FClear.1 mph78%29.95 "Hg10 mi
12:50 AM70 °FClear.2 mph83%29.95 "Hg10 mi
11:50 PM
Thu, Aug 25
79 °FClear.2 mph61%29.98 "Hg10 mi
10:50 PM73 °FClear.1 mph78%29.95 "Hg10 mi
9:50 PM77 °FClear.1 mph65%29.98 "Hg10 mi
8:50 PM81 °FSunny.No wind62%29.95 "Hg10 mi
Weather by CustomWeather, © 2016

See weather overviewHow to use our weather pages